Location: Wald
(31.7579°N, 86.6655°W)
Time: 11:16:23
(UTC+00:00)

Resurs 1-4 Rocket - Pass Details

Date: 14 July 2020
Orbit: 800 x 814 km, 98.6° (Epoch: 08 August)

Event Time Altitude Azimuth Distance (km) Brightness Sun altitude
Rises 06:30:18 0° 26° (NNE) 3,335 6.2 -35.9°
Reaches altitude 10° 06:32:57 10° 37° (NE) 2,397 5.2 -35.8°
Enters shadow 06:35:34 23° 62° (ENE) 1,650 4.0 -35.7°
